CZ-6A DEB, 55883

Orbit data source: Space-Track

CZ-6A DEB, 55883 is space debris in SSO originally from a launch on Fri, 11 Nov 2022 UTC launched from the Taiyaun Space Center, China (TSC). Debris objects in space refer to the collection of defunct objects orbiting the Earth. Examples of debris include non-operational satellites, rocket bodies, and fragments generated from explosions, collisions, or faulty payload assembly.

Loading next visibility...
Identifier
55883, 2022-151AAF
Orbit
SSO
Last TLE update
15 hours ago
Origin
Manufacturer
SAST
Mission
Spacecraft
Bus & Motor
Unknown
Mass
Unknown
Launch date (UTC)
2022-11-11 (3 years ago)
Launch vehicle
Unknown
Launch site
Taiyaun Space Center, China (TSC)
Object type
Payload
Rocket body
Debris
Shape & HBR
Unknown
Radar Cross Section
Small (<0.1 m²)

Expand to show TLE details & history

TLE from 15 hours ago
0 CZ-6A DEB
1 55883U 22151AAF 25133.13657162  .00005000  00000-0  89122-3 0  9995
2 55883  98.7068 196.0026 0128977  38.5766 322.4563 14.62198442120056
Epoch: 2025-05-13T03:16Z
Definitive object data (Epoch: 2025-05-13T03:16:39.787Z)
Latitude
-0.00011°
Longitude
-84.3028°
Altitude
617.243 km
Speed
7.589 km/s
True Right ascension
13h 04m 00s
True Declination
0° 00' 00"
Sunlit
Object was in full shadow at TLE epoch
Visualization TLE readout
Latitude
-4.96139°
Longitude
-82.89735°
Altitude
621.105 km
Speed
7.585 km/s
Apparent Right ascension
13h 42m 10s
Apparent Declination
-21° 46' 04"
Sunlit
Object is in full shadow
Visualization observer readout
Local Sidereal Time
02:28:40
Azimuth
32.018° NE
Elevation
-69.332°
Doppler factor
1
Orbital elements
Apogee altitude
774.261 km
Perigee altitude
592.111 km
Semi-major axis
7,061.323 km
Eccentricity
0.0128977
Inclination
98.7068°
RAAN
196.0026°
Arg. of periapsis
38.5766°
True anomaly
321.54406°
Mean anomaly
322.4563°
Eccentric anomaly
322.00135°
Mean motion
3.65775 °/min
BSTAR
0.00089122
Orbital period
98.42 mins
Loading maneuver chart data...
Loading SW <> Apogee altitude chart data...
Loading historical data...
Loading historical data...
Loading historical data...
Loading historical data...
Loading historical data...
Loading historical data...
Loading historical data...

CZ-6A DEB Visibility forecast

Observer location: undefined°, undefined°

Span
Click to sort rows by Start time (UTC) header in descending order
Start Az.
Max El. time (UTC)
Max El. Az.
Max El.
End time (UTC)
End Az.
6 mins2025-05-14 04:03:10.136Z158.483° S2025-05-14 04:05:10.136Z132.603° SE43.073°2025-05-14 04:09:10.136Z349.648° N
4 mins2025-05-14 16:01:10.136Z71.172° E2025-05-14 16:03:10.136Z103.097° ESE17.704°2025-05-14 16:05:10.136Z130.708° SE
7 mins2025-05-14 17:37:10.136Z351.549° N2025-05-14 17:40:10.136Z287.253° WNW34.75°2025-05-14 17:44:10.136Z220.146° SW
|